Location: Ash Swamp
(41.5170°N, 74.6157°W)
Time: 16:53:26
(UTC+00:00)

Cosmos 1408 - Pass Details

Date: 14 July 2020
Orbit: 470 x 494 km, 82.6° (Epoch: 04 August)

Event Time Altitude Azimuth Distance (km) Brightness Sun altitude
Exits shadow 01:56:14 20° 109° (ESE) 1,129 3.9 -13.3°
Maximum altitude 01:56:59 22° 90° (E) 1,079 3.9 -13.4°
Drops below altitude 10° 01:59:48 10° 38° (NE) 1,640 5.3 -13.8°
Sets 02:02:12 0° 23° (NNE) 2,524 6.5 -14.1°
